"Period start","avg(HW err(1)/warn(2) (#))","avg(Visibility (m))","avg(Weather code (#))","avg(Precip intensity (mm/h))","min(HW err(1)/warn(2) (#))","max(HW err(1)/warn(2) (#))","std(HW err(1)/warn(2) (#))","med(HW err(1)/warn(2) (#))","min(Visibility (m))","max(Visibility (m))","std(Visibility (m))","med(Visibility (m))","min(Weather code (#))","max(Weather code (#))","std(Weather code (#))","med(Weather code (#))","min(Precip intensity (mm/h))","max(Precip intensity (mm/h))","std(Precip intensity (mm/h))","med(Precip intensity (mm/h))"
2014-06-28 00:00:00,2,20777,0,0.00,2,2,0,2,12005,31931,6904,19158,0,0,0,0,0.00,0.00,0.00,0.00
2014-06-28 00:10:00,2,15321,0,0.00,2,2,0,2,10894,19334,2847,15699,0,0,0,0,0.00,0.00,0.00,0.00
2014-06-28 00:20:00,2,11164,0,0.00,2,2,0,2,8729,13387,1228,11248,0,0,0,0,0.00,0.00,0.00,0.00
2014-06-28 00:30:00,2,15008,0,0.00,2,2,0,2,6893,19456,4858,18154,0,0,0,0,0.00,0.00,0.00,0.00
2014-06-28 00:40:00,2,10198,0,0.00,2,2,0,2,7284,14343,2194,9564,0,0,0,0,0.00,0.00,0.00,0.00
2014-06-28 00:50:00,2,6723,8,0.00,2,2,0,2,5049,8312,1100,6766,0,10,4,10,0.00,0.00,0.00,0.00
2014-06-28 01:00:00,2,6353,10,0.00,2,2,0,2,4687,8923,1190,6092,10,10,0,10,0.00,0.00,0.00,0.00
2014-06-28 01:10:00,2,6934,10,0.00,2,2,0,2,5580,8885,1102,6782,10,10,0,10,0.00,0.00,0.00,0.00
2014-06-28 01:20:00,2,5370,10,0.00,2,2,0,2,4910,6354,439,5206,10,10,0,10,0.00,0.00,0.00,0.00
2014-06-28 01:30:00,2,5772,24,0.04,2,2,0,2,4210,6782,815,6012,10,51,18,10,0.00,0.15,0.06,0.00
2014-06-28 01:40:00,2,4766,51,0.49,2,2,0,2,3857,5193,358,4916,51,51,0,51,0.05,1.00,0.26,0.45
2014-06-28 01:50:00,2,4480,59,0.57,2,2,0,2,3804,5299,464,4420,51,61,4,61,0.20,0.95,0.21,0.55
2014-06-28 02:00:00,2,4933,52,0.27,2,2,0,2,4202,5334,344,4990,51,61,3,51,0.15,0.50,0.12,0.20
2014-06-28 02:10:00,2,6010,22,0.03,2,2,0,2,4858,7086,736,6067,10,51,19,10,0.00,0.15,0.05,0.00
2014-06-28 02:20:00,2,7794,10,0.00,2,2,0,2,5833,9923,1467,7565,10,10,0,10,0.00,0.00,0.00,0.00
2014-06-28 02:30:00,2,12170,10,0.00,2,2,0,2,8958,15666,2395,12788,10,10,0,10,0.00,0.00,0.00,0.00
2014-06-28 02:40:00,2,20307,0,0.00,2,2,0,2,7683,42345,10926,18306,0,0,0,0,0.00,0.00,0.00,0.00
2014-06-28 02:50:00,2,12805,0,0.00,2,2,0,2,6641,19685,3855,13174,0,0,0,0,0.00,0.00,0.00,0.00
2014-06-28 03:00:00,2,27272,0,0.00,2,2,0,2,17403,42803,7403,25365,0,0,0,0,0.00,0.00,0.00,0.00
2014-06-28 03:10:00,2,30368,0,0.00,2,2,0,2,15461,43847,8907,32606,0,0,0,0,0.00,0.00,0.00,0.00
2014-06-28 03:20:00,2,39306,0,0.00,2,2,0,2,28408,49110,5924,40244,0,0,0,0,0.00,0.00,0.00,0.00
2014-06-28 03:30:00,2,48281,0,0.00,2,2,0,2,42241,50000,2524,50000,0,0,0,0,0.00,0.00,0.00,0.00
2014-06-28 03:40:00,2,43023,0,0.00,2,2,0,2,35310,50000,4073,42269,0,0,0,0,0.00,0.00,0.00,0.00
2014-06-28 03:50:00,2,49448,0,0.00,2,2,0,2,47470,50000,829,50000,0,0,0,0,0.00,0.00,0.00,0.00
2014-06-28 04:00:00,2,49802,0,0.00,2,2,0,2,48022,50000,593,50000,0,0,0,0,0.00,0.00,0.00,0.00
2014-06-28 04:10:00,2,45883,0,0.00,2,2,0,2,32530,50000,6424,49128,0,0,0,0,0.00,0.00,0.00,0.00
2014-06-28 04:20:00,2,15616,0,0.00,2,2,0,2,6630,27658,6544,14078,0,0,0,0,0.00,0.00,0.00,0.00
2014-06-28 04:30:00,2,22996,0,0.00,2,2,0,2,11389,32272,7622,23945,0,0,0,0,0.00,0.00,0.00,0.00
2014-06-28 04:40:00,2,13241,13,0.09,2,2,0,2,5393,30992,7756,10884,0,51,20,0,0.00,0.55,0.17,0.00
2014-06-28 04:50:00,2,24028,30,0.54,2,2,0,2,6839,50000,16250,19186,0,61,30,26,0.00,2.70,0.84,0.00
2014-06-28 05:00:00,2,17864,12,0.20,2,2,0,2,6193,37323,10240,12776,0,61,24,0,0.00,1.90,0.57,0.00
2014-06-28 05:10:00,2,19739,17,0.51,2,2,0,2,7178,34620,8821,21122,0,61,27,0,0.00,2.85,0.92,0.00
2014-06-28 05:20:00,2,17061,18,0.10,2,2,0,2,4019,50000,18059,5984,0,61,28,0,0.00,0.35,0.15,0.00
2014-06-28 05:30:00,2,11048,26,0.11,2,2,0,2,3447,27239,6670,9323,10,51,20,10,0.00,0.65,0.22,0.00
2014-06-28 05:40:00,2,9622,30,0.40,2,2,0,2,5369,14263,2991,9620,10,61,25,10,0.00,3.50,1.04,0.00
2014-06-28 05:50:00,2,12981,10,0.00,2,2,0,2,6904,28193,6679,9086,10,10,0,10,0.00,0.00,0.00,0.00
2014-06-28 06:00:00,2,6804,19,0.12,2,2,0,2,4455,9380,1498,6747,0,61,19,10,0.00,0.75,0.23,0.00
2014-06-28 06:10:00,2,18074,25,0.53,2,2,0,2,6895,42530,12420,12540,0,61,22,10,0.00,3.25,1.04,0.00
2014-06-28 06:20:00,2,10713,61,1.13,2,2,0,2,7721,15675,2580,10372,61,61,0,61,0.00,3.35,0.97,1.02
2014-06-28 06:30:00,2,12415,61,3.39,2,2,0,2,8818,16430,2483,11830,61,62,0,61,0.15,13.05,3.96,1.70
2014-06-28 06:40:00,2,10938,61,7.39,2,2,0,2,8208,13952,1886,10735,61,62,0,61,1.30,13.85,3.86,6.62
2014-06-28 06:50:00,2,8696,61,1.46,2,2,0,2,4963,17187,3782,7276,61,61,0,61,0.25,6.50,1.71,1.00
2014-06-28 07:00:00,2,10848,55,6.65,2,2,0,2,5741,18494,4151,11074,0,62,18,61,0.00,18.70,5.20,6.28
2014-06-28 07:10:00,2,7350,63,11.43,2,2,0,2,3101,12761,2934,7590,61,67,3,62,4.00,19.00,5.25,9.28
2014-06-28 07:20:00,2,6831,63,22.41,2,2,0,2,4307,8505,1431,7426,62,67,1,62,12.10,42.45,10.39,18.42
2014-06-28 07:30:00,2,6752,62,23.47,2,2,0,2,3206,9099,1973,7343,62,62,0,62,10.25,38.25,9.73,22.65
2014-06-28 07:40:00,2,5426,61,12.83,2,2,0,2,2944,8526,1445,5636,61,62,0,61,2.20,32.10,10.29,7.45
2014-06-28 07:50:00,2,6636,61,7.58,2,2,0,2,5642,7180,539,6767,61,62,0,61,3.00,10.15,2.66,8.70
2014-06-28 08:00:00,2,5127,56,2.88,2,2,0,2,3681,8190,1428,4552,52,61,4,56,0.75,6.25,1.72,2.35
2014-06-28 08:10:00,2,6013,55,2.21,2,2,0,2,4101,8744,1639,5355,52,61,4,52,0.15,3.95,1.09,2.05
2014-06-28 08:20:00,2,7718,50,0.86,2,2,0,2,5440,9076,971,7788,10,61,14,52,0.00,3.10,0.88,0.85
2014-06-28 08:30:00,2,11305,30,0.07,2,2,0,2,4661,17484,4896,11986,10,61,25,10,0.00,0.40,0.12,0.00
2014-06-28 08:40:00,2,33173,5,0.01,0,2,1,2,14148,50000,12745,31102,0,51,15,0,0.00,0.05,0.02,0.00
2014-06-28 08:50:00,1,25199,0,0.00,0,2,1,0,13218,50000,12195,20596,0,0,0,0,0.00,0.00,0.00,0.00
2014-06-28 09:00:00,2,50000,0,0.00,0,2,1,2,50000,50000,0,50000,0,0,0,0,0.00,0.00,0.00,0.00
2014-06-28 09:10:00,1,49738,0,0.00,0,2,1,2,48089,50000,560,50000,0,0,0,0,0.00,0.00,0.00,0.00
2014-06-28 09:20:00,0,50000,0,0.00,0,0,0,0,50000,50000,0,50000,0,0,0,0,0.00,0.00,0.00,0.00
2014-06-28 09:30:00,1,49682,0,0.00,0,2,1,2,48182,50000,645,50000,0,0,0,0,0.00,0.00,0.00,0.00
2014-06-28 09:40:00,2,50000,0,0.00,2,2,0,2,50000,50000,0,50000,0,0,0,0,0.00,0.00,0.00,0.00
2014-06-28 09:50:00,2,50000,0,0.00,2,2,0,2,50000,50000,0,50000,0,0,0,0,0.00,0.00,0.00,0.00
2014-06-28 10:00:00,2,49785,0,0.00,2,2,0,2,47854,50000,644,50000,0,0,0,0,0.00,0.00,0.00,0.00
2014-06-28 10:10:00,1,49995,0,0.00,0,2,1,0,49947,50000,16,50000,0,0,0,0,0.00,0.00,0.00,0.00
2014-06-28 10:20:00,0,50000,0,0.00,0,0,0,0,50000,50000,0,50000,0,0,0,0,0.00,0.00,0.00,0.00
2014-06-28 10:30:00,0,49812,0,0.00,0,0,0,0,48125,50000,562,50000,0,0,0,0,0.00,0.00,0.00,0.00
2014-06-28 10:40:00,0,49980,0,0.00,0,0,0,0,49796,50000,61,50000,0,0,0,0,0.00,0.00,0.00,0.00
2014-06-28 10:50:00,0,50000,0,0.00,0,0,0,0,50000,50000,0,50000,0,0,0,0,0.00,0.00,0.00,0.00
2014-06-28 11:00:00,0,50000,0,0.00,0,0,0,0,50000,50000,0,50000,0,0,0,0,0.00,0.00,0.00,0.00
2014-06-28 11:10:00,0,50000,0,0.00,0,0,0,0,50000,50000,0,50000,0,0,0,0,0.00,0.00,0.00,0.00
2014-06-28 11:20:00,2,50000,0,0.00,0,2,1,2,50000,50000,0,50000,0,0,0,0,0.00,0.00,0.00,0.00
2014-06-28 11:30:00,2,49978,0,0.00,2,2,0,2,49777,50000,67,50000,0,0,0,0,0.00,0.00,0.00,0.00
2014-06-28 11:40:00,2,50000,0,0.00,2,2,0,2,50000,50000,0,50000,0,0,0,0,0.00,0.00,0.00,0.00
2014-06-28 11:50:00,2,50000,0,0.00,2,2,0,2,50000,50000,0,50000,0,0,0,0,0.00,0.00,0.00,0.00
2014-06-28 12:00:00,2,50000,0,0.00,2,2,0,2,50000,50000,0,50000,0,0,0,0,0.00,0.00,0.00,0.00
2014-06-28 12:10:00,2,50000,0,0.00,2,2,0,2,50000,50000,0,50000,0,0,0,0,0.00,0.00,0.00,0.00
2014-06-28 12:20:00,2,50000,0,0.00,2,2,0,2,50000,50000,0,50000,0,0,0,0,0.00,0.00,0.00,0.00
2014-06-28 12:30:00,2,50000,0,0.00,2,2,0,2,50000,50000,0,50000,0,0,0,0,0.00,0.00,0.00,0.00
2014-06-28 12:40:00,2,49917,0,0.00,2,2,0,2,49169,50000,249,50000,0,0,0,0,0.00,0.00,0.00,0.00
2014-06-28 12:50:00,2,50000,0,0.00,2,2,0,2,50000,50000,0,50000,0,0,0,0,0.00,0.00,0.00,0.00
2014-06-28 13:00:00,2,50000,0,0.00,2,2,0,2,50000,50000,0,50000,0,0,0,0,0.00,0.00,0.00,0.00
2014-06-28 13:10:00,2,50000,0,0.00,2,2,0,2,50000,50000,0,50000,0,0,0,0,0.00,0.00,0.00,0.00
2014-06-28 13:20:00,2,50000,0,0.00,2,2,0,2,50000,50000,0,50000,0,0,0,0,0.00,0.00,0.00,0.00
2014-06-28 13:30:00,2,50000,0,0.00,2,2,0,2,50000,50000,0,50000,0,0,0,0,0.00,0.00,0.00,0.00
2014-06-28 13:40:00,2,50000,0,0.00,2,2,0,2,50000,50000,0,50000,0,0,0,0,0.00,0.00,0.00,0.00
2014-06-28 13:50:00,2,50000,0,0.00,2,2,0,2,50000,50000,0,50000,0,0,0,0,0.00,0.00,0.00,0.00
2014-06-28 14:00:00,2,50000,0,0.00,2,2,0,2,50000,50000,0,50000,0,0,0,0,0.00,0.00,0.00,0.00
2014-06-28 14:10:00,2,50000,0,0.00,2,2,0,2,50000,50000,0,50000,0,0,0,0,0.00,0.00,0.00,0.00
2014-06-28 14:20:00,2,50000,0,0.00,2,2,0,2,50000,50000,0,50000,0,0,0,0,0.00,0.00,0.00,0.00
2014-06-28 14:30:00,2,50000,0,0.00,2,2,0,2,50000,50000,0,50000,0,0,0,0,0.00,0.00,0.00,0.00
2014-06-28 14:40:00,2,50000,0,0.00,2,2,0,2,50000,50000,0,50000,0,0,0,0,0.00,0.00,0.00,0.00
2014-06-28 14:50:00,2,50000,0,0.00,2,2,0,2,50000,50000,0,50000,0,0,0,0,0.00,0.00,0.00,0.00
2014-06-28 15:00:00,2,37298,0,0.00,2,2,0,2,15412,50000,14618,47057,0,0,0,0,0.00,0.00,0.00,0.00
2014-06-28 15:10:00,2,21018,0,0.00,2,2,0,2,10799,33161,6952,19704,0,0,0,0,0.00,0.00,0.00,0.00
2014-06-28 15:20:00,2,11396,0,0.00,2,2,0,2,6763,14268,2806,12850,0,0,0,0,0.00,0.00,0.00,0.00
2014-06-28 15:30:00,1,9860,0,0.00,0,2,1,2,7777,13378,1663,9976,0,0,0,0,0.00,0.00,0.00,0.00
2014-06-28 15:40:00,0,7280,8,0.00,0,0,0,0,6229,9390,973,7064,0,10,4,10,0.00,0.00,0.00,0.00
2014-06-28 15:50:00,0,12495,10,0.00,0,0,0,0,9809,16404,1882,12468,10,10,0,10,0.00,0.00,0.00,0.00
2014-06-28 16:00:00,0,18681,1,0.00,0,0,0,0,6710,29248,9496,22814,0,10,3,0,0.00,0.00,0.00,0.00
2014-06-28 16:10:00,0,9112,24,0.21,0,0,0,0,7632,10985,1012,8880,0,52,24,20,0.00,0.75,0.27,0.03
2014-06-28 16:20:00,0,6212,18,0.00,0,0,0,0,2502,12030,2840,5297,10,52,17,10,0.00,0.00,0.00,0.00
2014-06-28 16:30:00,0,7086,10,0.00,0,0,0,0,3115,10595,2211,6882,10,10,0,10,0.00,0.00,0.00,0.00
2014-06-28 16:40:00,0,31110,7,0.00,0,0,0,0,10291,50000,16468,31406,0,10,5,10,0.00,0.00,0.00,0.00
2014-06-28 16:50:00,0,50000,0,0.00,0,0,0,0,50000,50000,0,50000,0,0,0,0,0.00,0.00,0.00,0.00
2014-06-28 17:00:00,0,50000,0,0.00,0,0,0,0,50000,50000,0,50000,0,0,0,0,0.00,0.00,0.00,0.00
2014-06-28 17:10:00,0,50000,0,0.00,0,0,0,0,50000,50000,0,50000,0,0,0,0,0.00,0.00,0.00,0.00
2014-06-28 17:20:00,0,50000,0,0.00,0,0,0,0,50000,50000,0,50000,0,0,0,0,0.00,0.00,0.00,0.00
2014-06-28 17:30:00,0,50000,0,0.00,0,0,0,0,50000,50000,0,50000,0,0,0,0,0.00,0.00,0.00,0.00
2014-06-28 17:40:00,0,50000,0,0.00,0,0,0,0,50000,50000,0,50000,0,0,0,0,0.00,0.00,0.00,0.00
2014-06-28 17:50:00,0,50000,0,0.00,0,0,0,0,50000,50000,0,50000,0,0,0,0,0.00,0.00,0.00,0.00
2014-06-28 18:00:00,0,50000,0,0.00,0,0,0,0,50000,50000,0,50000,0,0,0,0,0.00,0.00,0.00,0.00
2014-06-28 18:10:00,0,50000,0,0.00,0,0,0,0,50000,50000,0,50000,0,0,0,0,0.00,0.00,0.00,0.00
2014-06-28 18:20:00,0,50000,0,0.00,0,0,0,0,50000,50000,0,50000,0,0,0,0,0.00,0.00,0.00,0.00
2014-06-28 18:30:00,0,49621,0,0.00,0,0,0,0,48034,50000,759,50000,0,0,0,0,0.00,0.00,0.00,0.00
2014-06-28 18:40:00,0,49867,0,0.00,0,0,0,0,48671,50000,399,50000,0,0,0,0,0.00,0.00,0.00,0.00
2014-06-28 18:50:00,2,49912,0,0.00,2,2,0,2,49121,50000,264,50000,0,0,0,0,0.00,0.00,0.00,0.00
2014-06-28 19:00:00,2,50000,0,0.00,2,2,0,2,50000,50000,0,50000,0,0,0,0,0.00,0.00,0.00,0.00
2014-06-28 19:10:00,2,49374,0,0.00,2,2,0,2,46512,50000,1117,50000,0,0,0,0,0.00,0.00,0.00,0.00
2014-06-28 19:20:00,2,49544,0,0.00,2,2,0,2,48337,50000,701,50000,0,0,0,0,0.00,0.00,0.00,0.00
2014-06-28 19:30:00,2,50000,0,0.00,2,2,0,2,50000,50000,0,50000,0,0,0,0,0.00,0.00,0.00,0.00
2014-06-28 19:40:00,2,49844,0,0.00,2,2,0,2,48442,50000,467,50000,0,0,0,0,0.00,0.00,0.00,0.00
2014-06-28 19:50:00,2,49743,0,0.00,2,2,0,2,48471,50000,525,50000,0,0,0,0,0.00,0.00,0.00,0.00
2014-06-28 20:00:00,2,50000,0,0.00,2,2,0,2,50000,50000,0,50000,0,0,0,0,0.00,0.00,0.00,0.00
2014-06-28 20:10:00,1,49311,0,0.00,0,2,1,2,46582,50000,1135,50000,0,0,0,0,0.00,0.00,0.00,0.00
2014-06-28 20:20:00,0,49452,0,0.00,0,0,0,0,47563,50000,927,50000,0,0,0,0,0.00,0.00,0.00,0.00
2014-06-28 20:30:00,0,50000,0,0.00,0,0,0,0,50000,50000,0,50000,0,0,0,0,0.00,0.00,0.00,0.00
2014-06-28 20:40:00,0,49535,0,0.00,0,0,0,0,47620,50000,793,50000,0,0,0,0,0.00,0.00,0.00,0.00
2014-06-28 20:50:00,0,50000,0,0.00,0,0,0,0,50000,50000,0,50000,0,0,0,0,0.00,0.00,0.00,0.00
2014-06-28 21:00:00,1,49250,0,0.00,0,2,1,0,46947,50000,1175,50000,0,0,0,0,0.00,0.00,0.00,0.00
2014-06-28 21:10:00,2,50000,0,0.00,2,2,0,2,50000,50000,0,50000,0,0,0,0,0.00,0.00,0.00,0.00
2014-06-28 21:20:00,2,49711,0,0.00,2,2,0,2,47113,50000,866,50000,0,0,0,0,0.00,0.00,0.00,0.00
2014-06-28 21:30:00,2,48489,0,0.00,2,2,0,2,41698,50000,2791,50000,0,0,0,0,0.00,0.00,0.00,0.00
2014-06-28 21:40:00,2,48886,0,0.00,2,2,0,2,41104,50000,2679,50000,0,0,0,0,0.00,0.00,0.00,0.00
2014-06-28 21:50:00,2,46957,0,0.00,2,2,0,2,40020,50000,3484,48781,0,0,0,0,0.00,0.00,0.00,0.00
2014-06-28 22:00:00,2,48516,0,0.00,2,2,0,2,45695,50000,1769,49621,0,0,0,0,0.00,0.00,0.00,0.00
2014-06-28 22:10:00,2,47801,0,0.00,2,2,0,2,41436,50000,3220,50000,0,0,0,0,0.00,0.00,0.00,0.00
2014-06-28 22:20:00,2,49134,0,0.00,2,2,0,2,43160,50000,2013,50000,0,0,0,0,0.00,0.00,0.00,0.00
2014-06-28 22:30:00,2,48194,0,0.00,2,2,0,2,40996,50000,2981,50000,0,0,0,0,0.00,0.00,0.00,0.00
2014-06-28 22:40:00,2,49640,0,0.00,2,2,0,2,48469,50000,531,50000,0,0,0,0,0.00,0.00,0.00,0.00
2014-06-28 22:50:00,2,49805,0,0.00,2,2,0,2,48051,50000,585,50000,0,0,0,0,0.00,0.00,0.00,0.00
2014-06-28 23:00:00,2,49387,0,0.00,2,2,0,2,47948,50000,800,50000,0,0,0,0,0.00,0.00,0.00,0.00
2014-06-28 23:10:00,2,45280,0,0.00,2,2,0,2,35484,50000,5109,47122,0,0,0,0,0.00,0.00,0.00,0.00
2014-06-28 23:20:00,2,44676,0,0.00,2,2,0,2,36191,50000,4424,44415,0,0,0,0,0.00,0.00,0.00,0.00
2014-06-28 23:30:00,2,48799,0,0.00,2,2,0,2,45383,50000,1854,50000,0,0,0,0,0.00,0.00,0.00,0.00
2014-06-28 23:40:00,2,44626,0,0.00,2,2,0,2,25681,50000,8380,50000,0,0,0,0,0.00,0.00,0.00,0.00
2014-06-28 23:50:00,2,44619,0,0.00,2,2,0,2,38900,50000,3616,45580,0,0,0,0,0.00,0.00,0.00,0.00
